Flag for U.S.A. Weather past 2 weeks in Fort Worth, Texas, U.S.A.

Now
61 °F

Clear.


Feels Like: 61 °F
Forecast: 64 / 86 °F
Wind: 6 mph from West

Location: Meacham International Airport

Current Time: Apr 25, 2015 at 7:10:54 AM

Latest Report: Apr 25, 2015 at 5:53 AM


Visibility: 10 mi

Pressure: 29.67 "Hg

Humidity: 81%

Dew point: 55 °F

Location of Fort WorthLocation

Historic Weather in Fort Worth — Graph

°F

Fort Worth temperature yesterday

Maximum temperature yesterday: 72 °F (at 3:53 AM)
Minimum temperature yesterday: 62 °F (at 9:53 PM)
Average temperature yesterday: 68 °F

Past Weeks' High & Low Weather Summary

 TemperatureHumidityPressure
High80 °F (Apr 18, 3:53 PM)97% (Apr 13, 6:53 AM)30.21 "Hg (Apr 13, 6:53 AM)
Low48 °F (Apr 20, 5:53 AM)35% (Apr 20, 2:53 PM)29.64 "Hg (Apr 24, 7:53 PM)
Average66 °F78%29.91 "Hg
* Reported Apr 10 5:53 AM — Apr 25 5:53 AM, Fort Worth, Weather by CustomWeather, © 2015

Note: Actual official high and low records may vary slightly from our data, if they occured in-between our weather recording intervals... More about our weather records

Advertising

Fort Worth weather history for previous 24 hours

 ConditionsComfort  
Time TempWeatherWind HumidityBarometerVisibility
5:53 AM
Sat, Apr 25
61 °FClear.6 mph81%29.67 "Hg10 mi
4:53 AM61 °FClear.6 mph90%29.67 "Hg10 mi
3:53 AM63 °FClear.6 mph87%29.67 "Hg10 mi
2:53 AM63 °FClear.5 mph90%29.66 "Hg10 mi
1:53 AM63 °FClear.3 mph90%29.66 "Hg10 mi
12:53 AM63 °FClear.No wind93%29.66 "Hg10 mi
11:53 PM
Fri, Apr 24
62 °FClear.6 mph96%29.67 "Hg10 mi
10:53 PM63 °FClear.6 mph93%29.66 "Hg10 mi
9:53 PM62 °FClear.5 mph93%29.65 "Hg10 mi
8:53 PM64 °FSunny.7 mph94%29.66 "Hg10 mi
7:53 PM64 °FPassing clouds.8 mph94%29.64 "Hg10 mi
5:53 PM70 °FThundershowers. Cloudy.N/A87%29.70 "Hg10 mi
4:53 PM68 °FFog.9 mph90%29.67 "Hg6 mi
3:53 PM68 °FFog.10 mph90%29.70 "Hg6 mi
2:53 PM68 °FLight rain. Low clouds.9 mph90%29.74 "Hg10 mi
1:53 PM69 °FMostly cloudy.10 mph87%29.75 "Hg10 mi
12:53 PM70 °FPartly sunny.10 mph87%29.78 "Hg10 mi
11:59 AM67 °FLight rain. Mostly cloudy.15 mph93%29.82 "Hg10 mi
10:53 AM67 °FFog.10 mph97%29.79 "Hg5 mi
10:04 AM67 °FRain. Fog.10 mph97%29.82 "Hg3 mi
9:53 AM67 °FThundershowers. Fog.7 mph97%29.80 "Hg2 mi
8:53 AM68 °FLow clouds.13 mph90%29.83 "Hg10 mi
8:04 AM68 °FCloudy.9 mph90%29.88 "Hg8 mi
Weather by CustomWeather, © 2015

See weather overviewHow to use our weather pages